Location: Beaver Dam Church
(34.5318°N, 88.9828°W)
Time: 23:46:23
(UTC+00:00)

GPS 2-04 Rocket1 - Pass Details

Date: 29 October 2020
Orbit: 417 x 546 km, 35.6° (Epoch: 04 December)

Event Time Altitude Azimuth Distance (km) Brightness Sun altitude
Rises 23:30:14 0° 244° (WSW) 2,579 8.2 -5.9°
Reaches altitude 10° 23:32:25 10° 240° (WSW) 1,719 6.8 -6.4°
Maximum altitude 23:36:19 58° 161° (SSE) 614 3.0 -7.1°
Enters shadow 23:40:22 10° 82° (E) 1,784 4.7 -8.0°
